| time (UTC) | temp C | wind direction | speed KPH | gust KPH | rain 1hr cm | rain 24hr cm | rain mn cm | humidity % | barometer mb |
| 20260506061602 | 16 | 0.0 | 0.0 | 0.00 | 0.61 | 0.46 | 49 | 1011.4 | |
| 20260506044601 | 17 | 0.0 | 0.0 | 0.00 | 0.66 | 0.46 | 49 | 1010.9 | |
| 20260506043054 | 17 | 0.0 | 0.0 | 0.00 | 0.66 | 0.46 | 46 | 1010.8 | |
| 20260506041605 | 17 | 0.0 | 0.0 | 0.00 | 0.66 | 0.46 | 44 | 1010.6 | |
| 20260506040054 | 17 | 0.0 | 0.0 | 0.00 | 0.71 | 0.46 | 43 | 1010.2 | |
| 20260506034550 | 18 | 0.0 | 0.0 | 0.00 | 0.71 | 0.46 | 41 | 1010.1 | |
| 20260506033052 | 18 | 0.0 | 0.0 | 0.00 | 0.71 | 0.46 | 38 | 1009.9 | |
| 20260506031549 | 18 | 0.0 | 0.0 | 0.00 | 0.71 | 0.46 | 38 | 1009.7 | |
| 20260506030047 | 19 | 0.0 | 0.0 | 0.00 | 0.89 | 0.46 | 37 | 1009.6 | |
| 20260506024547 | 19 | 0.0 | 0.0 | 0.00 | 0.89 | 0.46 | 36 | 1009.3 | |
| 20260506023054 | 20 | 0.0 | 0.0 | 0.00 | 0.89 | 0.46 | 36 | 1009.0 | |
| 20260506021546 | 20 | 0.0 | 0.0 | 0.00 | 0.89 | 0.46 | 35 | 1008.7 | |
| 20260506020114 | 20 | 0.0 | 0.0 | 0.00 | 1.02 | 0.46 | 35 | 1008.5 | |
| 20260506014544 | 21 | 0.0 | 0.0 | 0.00 | 1.02 | 0.46 | 34 | 1008.3 | |
| 20260506013044 | 22 | 0.0 | 0.0 | 0.00 | 1.02 | 0.46 | 32 | 1008.2 | |
| 20260506011548 | 22 | 0.0 | 0.0 | 0.00 | 1.02 | 0.46 | 29 | 1008.1 | |
| 20260506010043 | 23 | 0.0 | 0.0 | 0.00 | 1.04 | 0.46 | 30 | 1007.8 | |
| 20260506004545 | 23 | 0.0 | 0.0 | 0.00 | 1.04 | 0.46 | 29 | 1007.8 | |
| 20260506003043 | 23 | 0.0 | 0.0 | 0.00 | 1.04 | 0.46 | 30 | 1007.6 | |
| 20260506001548 | 24 | 0.0 | 0.0 | 0.00 | 1.04 | 0.46 | 31 | 1007.5 | |
| 20260506000054 | 23 | 0.0 | 0.0 | 0.00 | 1.04 | 0.46 | 33 | 1007.5 | |
| 20260505234542 | 23 | 0.0 | 0.0 | 0.00 | 1.04 | 0.46 | 30 | 1007.3 | |
| 20260505233037 | 23 | 0.0 | 0.0 | 0.00 | 1.04 | 0.46 | 29 | 1007.3 | |
| 20260505231538 | 23 | 0.0 | 0.0 | 0.00 | 1.04 | 0.46 | 28 | 1007.3 | |
| 20260505230042 | 23 | 0.0 | 0.0 | 0.00 | 1.04 | 0.46 | 30 | 1007.4 | |
| 20260505224543 | 24 | 0.0 | 0.0 | 0.00 | 1.04 | 0.46 | 31 | 1007.5 | |
| 20260505223037 | 24 | 0.0 | 0.0 | 0.00 | 1.04 | 0.46 | 31 | 1007.4 | |
| 20260505221529 | 23 | 0.0 | 0.0 | 0.00 | 1.04 | 0.46 | 28 | 1007.6 | |
| 20260505220026 | 24 | 0.0 | 0.0 | 0.00 | 1.04 | 0.46 | 31 | 1007.8 | |
| 20260505214525 | 24 | 0.0 | 0.0 | 0.00 | 1.04 | 0.46 | 33 | 1007.8 | |
| 20260505213027 | 24 | 0.0 | 0.0 | 0.00 | 1.04 | 0.46 | 35 | 1007.9 | |
| 20260505211529 | 23 | 0.0 | 0.0 | 0.00 | 1.04 | 0.46 | 39 | 1007.9 | |
| 20260505210018 | 23 | 0.0 | 0.0 | 0.00 | 1.04 | 0.46 | 39 | 1008.0 | |
| 20260505204514 | 21 | 0.0 | 0.0 | 0.00 | 1.04 | 0.46 | 42 | 1008.1 | |
| 20260505203016 | 21 | 0.0 | 0.0 | 0.00 | 1.04 | 0.46 | 50 | 1008.2 | |
| 20260505201512 | 21 | 0.0 | 0.0 | 0.00 | 1.04 | 0.46 | 53 | 1008.4 | |
| 20260505200011 | 21 | 0.0 | 0.0 | 0.00 | 1.04 | 0.46 | 52 | 1008.6 | |
| 20260505194509 | 21 | 0.0 | 0.0 | 0.00 | 1.04 | 0.46 | 54 | 1008.6 | |
| 20260505193010 | 21 | 0.0 | 0.0 | 0.00 | 1.04 | 0.46 | 54 | 1008.7 | |
| 20260505191512 | 22 | 0.0 | 0.0 | 0.00 | 1.04 | 0.46 | 54 | 1008.9 | |
| 20260505190005 | 21 | 0.0 | 0.0 | 0.00 | 1.04 | 0.46 | 56 | 1009.1 | |
| 20260505184504 | 20 | 0.0 | 0.0 | 0.00 | 1.04 | 0.46 | 61 | 1009.4 | |
| 20260505183003 | 21 | 0.0 | 0.0 | 0.00 | 1.04 | 0.46 | 59 | 1009.4 | |
| 20260505181641 | 19 | 0.0 | 0.0 | 0.00 | 1.04 | 0.46 | 63 | 1009.7 | |
| 20260505180106 | 19 | 0.0 | 0.0 | 0.00 | 1.04 | 0.46 | 64 | 1009.8 | |
| 20260505174557 | 19 | 0.0 | 0.0 | 0.00 | 1.04 | 0.46 | 65 | 1009.9 | |
| 20260505173054 | 18 | 0.0 | 0.0 | 0.00 | 1.04 | 0.46 | 71 | 1009.9 | |
| 20260505171600 | 18 | 0.0 | 0.0 | 0.00 | 1.04 | 0.46 | 71 | 1009.9 | |
| 20260505170050 | 17 | 0.0 | 0.0 | 0.00 | 1.04 | 0.46 | 72 | 1009.8 | |
| 20260505164548 | 17 | 0.0 | 0.0 | 0.00 | 1.04 | 0.46 | 74 | 1009.7 | |
| 20260505163047 | 17 | 0.0 | 0.0 | 0.00 | 1.04 | 0.46 | 77 | 1009.9 | |
| 20260505161546 | 17 | 0.0 | 0.0 | 0.00 | 1.04 | 0.46 | 82 | 1009.9 | |
| 20260505153129 | 16 | 0.0 | 0.0 | 0.00 | 1.04 | 0.46 | 88 | 1009.7 | |
| 20260505151526 | 15 | 0.0 | 0.0 | 0.00 | 1.04 | 0.46 | 89 | 1009.6 | |
| 20260505124510 | 14 | 0.0 | 0.0 | 0.03 | 1.04 | 0.46 | 92 | 1008.6 | |
| 20260505123010 | 14 | 0.0 | 0.0 | 0.00 | 1.02 | 0.43 | 92 | 1008.2 | |
| 20260505121510 | 14 | 0.0 | 0.0 | 0.00 | 1.02 | 0.43 | 91 | 1008.2 | |
| 20260505120008 | 14 | 0.0 | 0.0 | 0.03 | 1.02 | 0.43 | 91 | 1008.0 | |
| 20260505114508 | 14 | 0.0 | 0.0 | 0.03 | 1.02 | 0.43 | 91 | 1008.0 | |
| 20260505113005 | 14 | 0.0 | 0.0 | 0.05 | 1.02 | 0.43 | 91 | 1008.3 | |
| 20260505111505 | 14 | 0.0 | 0.0 | 0.08 | 1.02 | 0.43 | 91 | 1008.0 | |
| 20260505101603 | 14 | 0.0 | 0.0 | 0.08 | 0.94 | 0.36 | 91 | 1009.2 | |
| 20260505100056 | 14 | 0.0 | 0.0 | 0.10 | 0.91 | 0.33 | 91 | 1009.6 | |
| 20260505094555 | 14 | 0.0 | 0.0 | 0.10 | 0.91 | 0.33 | 91 | 1009.3 | |
| 20260505093051 | 14 | 0.0 | 0.0 | 0.13 | 0.89 | 0.30 | 91 | 1010.1 | |
| 20260505091555 | 14 | 0.0 | 0.0 | 0.13 | 0.86 | 0.28 | 91 | 1010.0 | |
| 20260505090047 | 14 | 0.0 | 0.0 | 0.10 | 0.81 | 0.23 | 91 | 1010.6 | |
| 20260505084553 | 14 | 0.0 | 0.0 | 0.15 | 0.81 | 0.23 | 91 | 1010.8 | |
| 20260505083055 | 14 | 0.0 | 0.0 | 0.15 | 0.76 | 0.18 | 91 | 1011.4 | |
| 20260505081541 | 14 | 0.0 | 0.0 | 0.13 | 0.71 | 0.15 | 91 | 1011.5 | |
| 20260505080038 | 15 | 0.0 | 0.0 | 0.13 | 0.71 | 0.13 | 91 | 1011.9 | |
| 20260505074537 | 15 | 0.0 | 0.0 | 0.08 | 0.66 | 0.08 | 91 | 1012.1 | |
| 20260505073035 | 15 | 0.0 | 0.0 | 0.08 | 0.61 | 0.03 | 91 | 1012.0 | |
| 20260505071533 | 15 | 0.0 | 0.0 | 0.13 | 0.61 | 0.03 | 91 | 1011.8 |